| time (UTC) | temp F | wind direction | speed MPH | gust MPH | rain 1hr in | rain 24hr in | rain mn in | humidity % | barometer mb |
| 20260508180926 | 90 | 47 | 5.0 | 10.0 | 0.00 | 0.00 | 0.00 | 27 | 1010.6 |
| 20260508180423 | 90 | 346 | 5.0 | 11.0 | 0.00 | 0.00 | 0.00 | 27 | 1010.5 |
| 20260508175919 | 90 | 33 | 5.0 | 13.0 | 0.00 | 0.00 | 0.00 | 27 | 1010.4 |
| 20260508175416 | 90 | 14 | 2.0 | 10.0 | 0.00 | 0.00 | 0.00 | 28 | 1010.5 |
| 20260508174914 | 90 | 31 | 3.0 | 7.0 | 0.00 | 0.00 | 0.00 | 28 | 1010.5 |
| 20260508174411 | 90 | 356 | 10.0 | 14.0 | 0.00 | 0.00 | 0.00 | 28 | 1010.4 |
| 20260508173907 | 90 | 23 | 10.0 | 12.0 | 0.00 | 0.00 | 0.00 | 28 | 1010.2 |
| 20260508173405 | 90 | 37 | 2.0 | 14.0 | 0.00 | 0.00 | 0.00 | 28 | 1010.3 |
| 20260508172900 | 90 | 23 | 6.0 | 13.0 | 0.00 | 0.00 | 0.00 | 28 | 1010.3 |
| 20260508172358 | 90 | 0 | 10.0 | 11.0 | 0.00 | 0.00 | 0.00 | 28 | 1010.0 |
| 20260508171854 | 90 | 8 | 3.0 | 16.0 | 0.00 | 0.00 | 0.00 | 27 | 1010.0 |
| 20260508171350 | 90 | 1 | 5.0 | 14.0 | 0.00 | 0.00 | 0.00 | 28 | 1009.9 |
| 20260508170847 | 90 | 6 | 7.0 | 15.0 | 0.00 | 0.00 | 0.00 | 28 | 1010.0 |
| 20260508170345 | 90 | 39 | 5.0 | 9.0 | 0.00 | 0.00 | 0.00 | 28 | 1009.9 |
| 20260508165841 | 91 | 24 | 5.0 | 11.0 | 0.00 | 0.00 | 0.00 | 29 | 1009.9 |
| 20260508165339 | 91 | 38 | 3.0 | 12.0 | 0.00 | 0.00 | 0.00 | 28 | 1009.9 |
| 20260508164835 | 91 | 20 | 7.0 | 11.0 | 0.00 | 0.00 | 0.00 | 28 | 1009.8 |
| 20260508164332 | 91 | 31 | 9.0 | 12.0 | 0.00 | 0.00 | 0.00 | 28 | 1009.8 |
| 20260508163830 | 91 | 43 | 7.0 | 8.0 | 0.00 | 0.00 | 0.00 | 28 | 1009.6 |
| 20260508163327 | 91 | 28 | 8.0 | 9.0 | 0.00 | 0.00 | 0.00 | 28 | 1009.5 |
| 20260508162823 | 91 | 50 | 3.0 | 9.0 | 0.00 | 0.00 | 0.00 | 29 | 1009.4 |
| 20260508162320 | 90 | 24 | 5.0 | 7.0 | 0.00 | 0.00 | 0.00 | 32 | 1009.4 |
| 20260508161817 | 89 | 42 | 7.0 | 9.0 | 0.00 | 0.00 | 0.00 | 35 | 1009.4 |
| 20260508161314 | 89 | 40 | 5.0 | 11.0 | 0.00 | 0.00 | 0.00 | 38 | 1009.2 |
| 20260508160812 | 89 | 42 | 6.0 | 11.0 | 0.00 | 0.00 | 0.00 | 38 | 1009.2 |
| 20260508160310 | 90 | 58 | 3.0 | 9.0 | 0.00 | 0.00 | 0.00 | 36 | 1009.3 |
| 20260508155806 | 91 | 111 | 5.0 | 8.0 | 0.00 | 0.00 | 0.00 | 32 | 1009.0 |
| 20260508155306 | 91 | 10 | 6.0 | 8.0 | 0.00 | 0.00 | 0.00 | 30 | 1009.2 |
| 20260508154800 | 91 | 22 | 5.0 | 11.0 | 0.00 | 0.00 | 0.00 | 31 | 1009.0 |
| 20260508154258 | 91 | 45 | 3.0 | 12.0 | 0.00 | 0.00 | 0.00 | 31 | 1009.1 |
| 20260508153754 | 92 | 59 | 3.0 | 8.0 | 0.00 | 0.00 | 0.00 | 31 | 1008.9 |
| 20260508153252 | 92 | 5 | 2.0 | 9.0 | 0.00 | 0.00 | 0.00 | 30 | 1008.9 |
| 20260508152747 | 92 | 23 | 7.0 | 12.0 | 0.00 | 0.00 | 0.00 | 30 | 1008.9 |
| 20260508152244 | 92 | 3 | 3.0 | 7.0 | 0.00 | 0.00 | 0.00 | 29 | 1009.0 |
| 20260508151740 | 92 | 32 | 3.0 | 10.0 | 0.00 | 0.00 | 0.00 | 29 | 1009.0 |
| 20260508151237 | 93 | 342 | 4.0 | 8.0 | 0.00 | 0.00 | 0.00 | 29 | 1008.7 |
| 20260508150733 | 93 | 119 | 3.0 | 9.0 | 0.00 | 0.00 | 0.00 | 28 | 1008.8 |
| 20260508150230 | 93 | 30 | 3.0 | 9.0 | 0.00 | 0.00 | 0.00 | 29 | 1008.8 |
| 20260508145726 | 93 | 45 | 5.0 | 10.0 | 0.00 | 0.00 | 0.00 | 29 | 1008.8 |
| 20260508145223 | 93 | 66 | 6.0 | 8.0 | 0.00 | 0.00 | 0.00 | 29 | 1008.6 |
| 20260508144720 | 93 | 45 | 6.0 | 9.0 | 0.00 | 0.00 | 0.00 | 29 | 1008.7 |
| 20260508144218 | 93 | 90 | 3.0 | 7.0 | 0.00 | 0.00 | 0.00 | 29 | 1008.7 |
| 20260508143715 | 93 | 24 | 6.0 | 11.0 | 0.00 | 0.00 | 0.00 | 29 | 1008.7 |
| 20260508143212 | 93 | 38 | 7.0 | 10.0 | 0.00 | 0.00 | 0.00 | 29 | 1008.7 |
| 20260508142708 | 93 | 43 | 4.0 | 9.0 | 0.00 | 0.00 | 0.00 | 29 | 1008.6 |
| 20260508142205 | 94 | 6 | 3.0 | 8.0 | 0.00 | 0.00 | 0.00 | 29 | 1008.7 |
| 20260508141702 | 94 | 0 | 5.0 | 7.0 | 0.00 | 0.00 | 0.00 | 28 | 1008.8 |
| 20260508141159 | 94 | 38 | 3.0 | 7.0 | 0.00 | 0.00 | 0.00 | 29 | 1008.7 |
| 20260508140656 | 95 | 34 | 5.0 | 7.0 | 0.00 | 0.00 | 0.00 | 27 | 1008.7 |
| 20260508140153 | 94 | 42 | 5.0 | 8.0 | 0.00 | 0.00 | 0.00 | 28 | 1008.8 |
| 20260508135649 | 95 | 50 | 4.0 | 6.0 | 0.00 | 0.00 | 0.00 | 29 | 1008.6 |
| 20260508135145 | 96 | 62 | 4.0 | 6.0 | 0.00 | 0.00 | 0.00 | 27 | 1008.8 |
| 20260508134641 | 96 | 97 | 0.0 | 5.0 | 0.00 | 0.00 | 0.00 | 26 | 1008.7 |
| 20260508134139 | 95 | 31 | 5.0 | 11.0 | 0.00 | 0.00 | 0.00 | 26 | 1008.8 |
| 20260508133635 | 95 | 90 | 1.0 | 6.0 | 0.00 | 0.00 | 0.00 | 28 | 1008.7 |
| 20260508133133 | 95 | 51 | 3.0 | 6.0 | 0.00 | 0.00 | 0.00 | 28 | 1009.0 |
| 20260508132630 | 94 | 47 | 7.0 | 9.0 | 0.00 | 0.00 | 0.00 | 26 | 1008.5 |
| 20260508132127 | 95 | 34 | 5.0 | 10.0 | 0.00 | 0.00 | 0.00 | 26 | 1008.9 |
| 20260508131623 | 95 | 56 | 6.0 | 11.0 | 0.00 | 0.00 | 0.00 | 26 | 1008.9 |
| 20260508131120 | 95 | 32 | 8.0 | 9.0 | 0.00 | 0.00 | 0.00 | 25 | 1008.8 |
| 20260508130616 | 96 | 12 | 2.0 | 6.0 | 0.00 | 0.00 | 0.00 | 25 | 1008.7 |
| 20260508130113 | 95 | 16 | 4.0 | 8.0 | 0.00 | 0.00 | 0.00 | 25 | 1008.8 |
| 20260508125613 | 95 | 85 | 2.0 | 13.0 | 0.00 | 0.00 | 0.00 | 26 | 1008.9 |
| 20260508125111 | 96 | 0 | 4.0 | 9.0 | 0.00 | 0.00 | 0.00 | 25 | 1008.9 |
| 20260508124609 | 95 | 12 | 10.0 | 12.0 | 0.00 | 0.00 | 0.00 | 25 | 1009.0 |
| 20260508124106 | 95 | 34 | 10.0 | 11.0 | 0.00 | 0.00 | 0.00 | 25 | 1009.2 |
| 20260508123604 | 94 | 356 | 6.0 | 11.0 | 0.00 | 0.00 | 0.00 | 25 | 1009.1 |
| 20260508123101 | 95 | 19 | 4.0 | 11.0 | 0.00 | 0.00 | 0.00 | 25 | 1009.3 |
| 20260508122558 | 95 | 38 | 4.0 | 10.0 | 0.00 | 0.00 | 0.00 | 25 | 1009.5 |
| 20260508122055 | 94 | 352 | 5.0 | 11.0 | 0.00 | 0.00 | 0.00 | 25 | 1009.6 |
| 20260508121553 | 94 | 13 | 3.0 | 10.0 | 0.00 | 0.00 | 0.00 | 25 | 1009.7 |
| 20260508121051 | 94 | 55 | 6.0 | 10.0 | 0.00 | 0.00 | 0.00 | 25 | 1009.7 |
| 20260508120548 | 93 | 3 | 3.0 | 9.0 | 0.00 | 0.00 | 0.00 | 26 | 1009.6 |
| 20260508120046 | 94 | 45 | 3.0 | 5.0 | 0.00 | 0.00 | 0.00 | 25 | 1009.8 |
| 20260508115543 | 94 | 30 | 6.0 | 9.0 | 0.00 | 0.00 | 0.00 | 26 | 1010.0 |
| 20260508115039 | 93 | 2 | 4.0 | 10.0 | 0.00 | 0.00 | 0.00 | 26 | 1010.0 |
| 20260508114537 | 93 | 21 | 6.0 | 10.0 | 0.00 | 0.00 | 0.00 | 26 | 1010.1 |
| 20260508114033 | 93 | 50 | 6.0 | 13.0 | 0.00 | 0.00 | 0.00 | 25 | 1010.2 |
| 20260508113531 | 93 | 23 | 10.0 | 14.0 | 0.00 | 0.00 | 0.00 | 25 | 1010.3 |
| 20260508113029 | 94 | 10 | 3.0 | 11.0 | 0.00 | 0.00 | 0.00 | 25 | 1010.2 |
| 20260508112525 | 94 | 13 | 3.0 | 8.0 | 0.00 | 0.00 | 0.00 | 26 | 1010.2 |
| 20260508112021 | 94 | 121 | 4.0 | 11.0 | 0.00 | 0.00 | 0.00 | 26 | 1010.3 |
| 20260508111519 | 94 | 66 | 3.0 | 10.0 | 0.00 | 0.00 | 0.00 | 26 | 1010.3 |
| 20260508111015 | 93 | 345 | 4.0 | 13.0 | 0.00 | 0.00 | 0.00 | 26 | 1010.7 |
| 20260508110513 | 94 | 90 | 0.0 | 7.0 | 0.00 | 0.00 | 0.00 | 27 | 1010.6 |
| 20260508110009 | 92 | 25 | 8.0 | 8.0 | 0.00 | 0.00 | 0.00 | 27 | 1010.6 |
| 20260508105504 | 92 | 354 | 4.0 | 7.0 | 0.00 | 0.00 | 0.00 | 27 | 1010.6 |
| 20260508105002 | 92 | 0 | 2.0 | 5.0 | 0.00 | 0.00 | 0.00 | 27 | 1010.8 |
| 20260508104459 | 92 | 5 | 3.0 | 11.0 | 0.00 | 0.00 | 0.00 | 27 | 1010.5 |
| 20260508103955 | 92 | 31 | 6.0 | 10.0 | 0.00 | 0.00 | 0.00 | 27 | 1010.8 |
| 20260508103453 | 92 | 0 | 0.0 | 4.0 | 0.00 | 0.00 | 0.00 | 27 | 1010.9 |
| 20260508102949 | 92 | 354 | 6.0 | 6.0 | 0.00 | 0.00 | 0.00 | 26 | 1011.2 |
| 20260508102448 | 92 | 9 | 2.0 | 3.0 | 0.00 | 0.00 | 0.00 | 26 | 1011.1 |
| 20260508101945 | 91 | 0 | 0.0 | 4.0 | 0.00 | 0.00 | 0.00 | 27 | 1011.3 |
| 20260508101442 | 91 | 295 | 2.0 | 5.0 | 0.00 | 0.00 | 0.00 | 27 | 1011.7 |
| 20260508100939 | 92 | 335 | 6.0 | 11.0 | 0.00 | 0.00 | 0.00 | 27 | 1012.1 |
| 20260508100438 | 92 | 315 | 7.0 | 12.0 | 0.00 | 0.00 | 0.00 | 27 | 1012.4 |
| 20260508095933 | 92 | 279 | 5.0 | 14.0 | 0.00 | 0.00 | 0.00 | 26 | 1012.6 |
| 20260508095431 | 92 | 309 | 5.0 | 9.0 | 0.00 | 0.00 | 0.00 | 27 | 1012.7 |
| 20260508094928 | 92 | 277 | 4.0 | 13.0 | 0.00 | 0.00 | 0.00 | 28 | 1012.3 |
| 20260508094425 | 92 | 274 | 3.0 | 11.0 | 0.00 | 0.00 | 0.00 | 27 | 1011.7 |
| 20260508093921 | 92 | 23 | 2.0 | 11.0 | 0.00 | 0.00 | 0.00 | 28 | 1010.7 |
| 20260508093419 | 92 | 40 | 5.0 | 15.0 | 0.00 | 0.00 | 0.00 | 27 | 1010.5 |
| 20260508092917 | 92 | 56 | 6.0 | 10.0 | 0.00 | 0.00 | 0.00 | 28 | 1010.6 |
| 20260508092415 | 92 | 60 | 4.0 | 11.0 | 0.00 | 0.00 | 0.00 | 27 | 1010.3 |
| 20260508091913 | 91 | 51 | 12.0 | 12.0 | 0.00 | 0.00 | 0.00 | 29 | 1010.3 |
| 20260508091409 | 91 | 348 | 1.0 | 11.0 | 0.00 | 0.00 | 0.00 | 28 | 1010.4 |
| 20260508090906 | 91 | 14 | 5.0 | 13.0 | 0.00 | 0.00 | 0.00 | 32 | 1010.3 |
| 20260508090405 | 90 | 40 | 5.0 | 11.0 | 0.00 | 0.00 | 0.00 | 33 | 1010.4 |
| 20260508085900 | 90 | 30 | 8.0 | 11.0 | 0.00 | 0.00 | 0.00 | 34 | 1010.3 |
| 20260508085357 | 89 | 53 | 8.0 | 13.0 | 0.00 | 0.00 | 0.00 | 34 | 1010.4 |
| 20260508084853 | 89 | 49 | 5.0 | 18.0 | 0.00 | 0.00 | 0.00 | 35 | 1010.5 |
| 20260508084350 | 91 | 92 | 5.0 | 11.0 | 0.00 | 0.00 | 0.00 | 34 | 1010.7 |
| 20260508083848 | 90 | 45 | 3.0 | 9.0 | 0.00 | 0.00 | 0.00 | 33 | 1010.7 |
| 20260508083346 | 90 | 43 | 5.0 | 11.0 | 0.00 | 0.00 | 0.00 | 32 | 1011.0 |
| 20260508082845 | 91 | 135 | 2.0 | 8.0 | 0.00 | 0.00 | 0.00 | 29 | 1011.4 |
| 20260508082343 | 90 | 70 | 4.0 | 13.0 | 0.00 | 0.00 | 0.00 | 28 | 1011.1 |
| 20260508081840 | 90 | 46 | 6.0 | 11.0 | 0.00 | 0.00 | 0.00 | 29 | 1011.2 |
| 20260508081337 | 89 | 30 | 9.0 | 14.0 | 0.00 | 0.00 | 0.00 | 28 | 1011.2 |
| 20260508080834 | 90 | 32 | 7.0 | 10.0 | 0.00 | 0.00 | 0.00 | 29 | 1011.4 |
| 20260508080332 | 89 | 53 | 3.0 | 12.0 | 0.00 | 0.00 | 0.00 | 29 | 1011.4 |
| 20260508075828 | 89 | 7 | 6.0 | 9.0 | 0.00 | 0.00 | 0.00 | 28 | 1011.4 |
| 20260508075325 | 88 | 24 | 9.0 | 14.0 | 0.00 | 0.00 | 0.00 | 29 | 1011.6 |
| 20260508074823 | 88 | 7 | 3.0 | 17.0 | 0.00 | 0.00 | 0.00 | 29 | 1011.7 |
| 20260508074320 | 88 | 9 | 7.0 | 15.0 | 0.00 | 0.00 | 0.00 | 29 | 1011.5 |
| 20260508073817 | 88 | 16 | 4.0 | 12.0 | 0.00 | 0.00 | 0.00 | 30 | 1011.6 |
| 20260508073315 | 88 | 24 | 9.0 | 13.0 | 0.00 | 0.00 | 0.00 | 30 | 1011.7 |
| 20260508072811 | 88 | 56 | 6.0 | 13.0 | 0.00 | 0.00 | 0.00 | 30 | 1011.4 |
| 20260508072308 | 87 | 53 | 11.0 | 14.0 | 0.00 | 0.00 | 0.00 | 31 | 1011.6 |
| 20260508071805 | 87 | 359 | 6.0 | 13.0 | 0.00 | 0.00 | 0.00 | 30 | 1011.6 |
| 20260508071303 | 87 | 52 | 6.0 | 12.0 | 0.00 | 0.00 | 0.00 | 33 | 1011.6 |
| 20260508070800 | 87 | 51 | 2.0 | 8.0 | 0.00 | 0.00 | 0.00 | 34 | 1011.3 |
| 20260508070259 | 87 | 7 | 1.0 | 6.0 | 0.00 | 0.00 | 0.00 | 37 | 1011.4 |
| 20260508065756 | 87 | 130 | 3.0 | 5.0 | 0.00 | 0.00 | 0.00 | 37 | 1011.4 |
| 20260508065253 | 87 | 125 | 2.0 | 5.0 | 0.00 | 0.00 | 0.00 | 38 | 1011.3 |
| 20260508064751 | 85 | 123 | 2.0 | 3.0 | 0.00 | 0.00 | 0.00 | 37 | 1011.5 |
| 20260508064249 | 85 | 117 | 0.0 | 3.0 | 0.00 | 0.00 | 0.00 | 41 | 1011.3 |
| 20260508063746 | 84 | 45 | 2.0 | 7.0 | 0.00 | 0.00 | 0.00 | 41 | 1011.1 |
| 20260508063244 | 83 | 35 | 4.0 | 7.0 | 0.00 | 0.00 | 0.00 | 41 | 1011.1 |
| 20260508062741 | 84 | 98 | 3.0 | 5.0 | 0.00 | 0.00 | 0.00 | 40 | 1011.1 |
| 20260508062239 | 84 | 74 | 0.0 | 11.0 | 0.00 | 0.00 | 0.00 | 38 | 1011.0 |
| 20260508061735 | 84 | 23 | 3.0 | 6.0 | 0.00 | 0.00 | 0.00 | 35 | 1011.2 |
| 20260508061232 | 84 | 132 | 2.0 | 11.0 | 0.00 | 0.00 | 0.00 | 34 | 1011.2 |
| 20260508060729 | 83 | 23 | 3.0 | 10.0 | 0.00 | 0.00 | 0.00 | 35 | 1011.0 |
| 20260508060227 | 83 | 60 | 3.0 | 11.0 | 0.00 | 0.00 | 0.00 | 35 | 1011.0 |
| 20260508055722 | 82 | 50 | 7.0 | 11.0 | 0.00 | 0.00 | 0.00 | 35 | 1011.0 |
| 20260508055219 | 82 | 29 | 5.0 | 9.0 | 0.00 | 0.00 | 0.00 | 36 | 1011.0 |
| 20260508054715 | 82 | 339 | 5.0 | 12.0 | 0.00 | 0.00 | 0.00 | 36 | 1011.2 |
| 20260508054214 | 81 | 27 | 10.0 | 16.0 | 0.00 | 0.00 | 0.00 | 36 | 1011.2 |
| 20260508053710 | 82 | 347 | 8.0 | 12.0 | 0.00 | 0.00 | 0.00 | 36 | 1011.2 |
| 20260508053208 | 82 | 356 | 12.0 | 12.0 | 0.00 | 0.00 | 0.00 | 35 | 1011.4 |
| 20260508052705 | 81 | 14 | 7.0 | 9.0 | 0.00 | 0.00 | 0.00 | 37 | 1011.3 |
| 20260508052201 | 81 | 22 | 7.0 | 12.0 | 0.00 | 0.00 | 0.00 | 37 | 1011.3 |
| 20260508051658 | 81 | 51 | 5.0 | 11.0 | 0.00 | 0.00 | 0.00 | 37 | 1011.2 |
| 20260508051153 | 81 | 328 | 5.0 | 12.0 | 0.00 | 0.00 | 0.00 | 37 | 1011.3 |
| 20260508050650 | 81 | 343 | 4.0 | 10.0 | 0.00 | 0.00 | 0.00 | 38 | 1011.2 |
| 20260508050147 | 80 | 1 | 7.0 | 13.0 | 0.00 | 0.00 | 0.00 | 38 | 1011.4 |
| 20260508045643 | 81 | 12 | 8.0 | 11.0 | 0.00 | 0.00 | 0.00 | 38 | 1011.3 |
| 20260508045141 | 80 | 340 | 4.0 | 13.0 | 0.00 | 0.00 | 0.00 | 38 | 1011.7 |
| 20260508044638 | 80 | 12 | 5.0 | 11.0 | 0.00 | 0.00 | 0.00 | 39 | 1011.7 |
| 20260508044134 | 81 | 19 | 6.0 | 9.0 | 0.00 | 0.00 | 0.00 | 39 | 1011.4 |
| 20260508043631 | 81 | 356 | 2.0 | 10.0 | 0.00 | 0.00 | 0.00 | 40 | 1011.5 |
| 20260508043129 | 81 | 62 | 7.0 | 7.0 | 0.00 | 0.00 | 0.00 | 40 | 1011.3 |
| 20260508042625 | 81 | 90 | 1.0 | 7.0 | 0.00 | 0.00 | 0.00 | 40 | 1011.5 |
| 20260508042122 | 81 | 32 | 3.0 | 5.0 | 0.00 | 0.00 | 0.00 | 41 | 1011.2 |
| 20260508041618 | 81 | 36 | 2.0 | 5.0 | 0.00 | 0.00 | 0.00 | 40 | 1011.4 |
| 20260508041115 | 80 | 5 | 5.0 | 8.0 | 0.00 | 0.00 | 0.00 | 40 | 1011.1 |
| 20260508040612 | 80 | 32 | 8.0 | 14.0 | 0.00 | 0.00 | 0.00 | 40 | 1011.0 |
| 20260508040110 | 80 | 346 | 3.0 | 9.0 | 0.00 | 0.00 | 0.00 | 40 | 1011.2 |
| 20260508035606 | 81 | 20 | 1.0 | 4.0 | 0.00 | 0.00 | 0.00 | 40 | 1011.1 |
| 20260508035104 | 80 | 352 | 9.0 | 10.0 | 0.00 | 0.00 | 0.00 | 39 | 1011.1 |
| 20260508034600 | 80 | 15 | 0.0 | 9.0 | 0.00 | 0.00 | 0.00 | 40 | 1010.9 |
| 20260508034058 | 80 | 0 | 8.0 | 9.0 | 0.00 | 0.00 | 0.00 | 40 | 1010.9 |
| 20260508033555 | 80 | 19 | 4.0 | 11.0 | 0.00 | 0.00 | 0.00 | 40 | 1011.0 |
| 20260508033053 | 80 | 30 | 3.0 | 5.0 | 0.00 | 0.00 | 0.00 | 41 | 1010.9 |
| 20260508032549 | 80 | 350 | 5.0 | 14.0 | 0.00 | 0.00 | 0.00 | 41 | 1010.9 |
| 20260508032047 | 80 | 355 | 3.0 | 10.0 | 0.00 | 0.00 | 0.00 | 41 | 1010.9 |
| 20260508031544 | 79 | 356 | 7.0 | 11.0 | 0.00 | 0.00 | 0.00 | 40 | 1010.8 |
| 20260508031040 | 79 | 349 | 8.0 | 14.0 | 0.00 | 0.00 | 0.00 | 40 | 1010.9 |
| 20260508030536 | 79 | 15 | 9.0 | 11.0 | 0.00 | 0.00 | 0.00 | 40 | 1010.8 |
| 20260508030035 | 80 | 74 | 1.0 | 4.0 | 0.00 | 0.00 | 0.00 | 40 | 1010.6 |
| 20260508025530 | 80 | 3 | 3.0 | 8.0 | 0.00 | 0.00 | 0.00 | 39 | 1009.9 |
| 20260508025028 | 80 | 14 | 5.0 | 7.0 | 0.00 | 0.00 | 0.00 | 39 | 1010.4 |
| 20260508024523 | 80 | 90 | 2.0 | 7.0 | 0.00 | 0.00 | 0.00 | 39 | 1010.2 |
| 20260508024021 | 80 | 339 | 5.0 | 14.0 | 0.00 | 0.00 | 0.00 | 39 | 1010.1 |
| 20260508023517 | 79 | 335 | 3.0 | 14.0 | 0.00 | 0.00 | 0.00 | 40 | 1010.3 |
| 20260508023015 | 80 | 319 | 4.0 | 13.0 | 0.00 | 0.00 | 0.00 | 41 | 1010.1 |
| 20260508022510 | 79 | 358 | 9.0 | 18.0 | 0.00 | 0.00 | 0.00 | 40 | 1009.5 |
| 20260508022007 | 80 | 2 | 7.0 | 12.0 | 0.00 | 0.00 | 0.00 | 40 | 1009.4 |
| 20260508021503 | 80 | 39 | 6.0 | 13.0 | 0.00 | 0.00 | 0.00 | 40 | 1009.3 |
| 20260508020959 | 80 | 45 | 4.0 | 16.0 | 0.00 | 0.00 | 0.00 | 40 | 1008.9 |
| 20260508020457 | 80 | 74 | 5.0 | 15.0 | 0.00 | 0.00 | 0.00 | 40 | 1009.3 |
| 20260508015954 | 80 | 4 | 6.0 | 11.0 | 0.00 | 0.00 | 0.00 | 40 | 1009.7 |
| 20260508015452 | 80 | 26 | 3.0 | 14.0 | 0.00 | 0.00 | 0.00 | 40 | 1009.4 |
| 20260508014948 | 80 | 25 | 5.0 | 14.0 | 0.00 | 0.00 | 0.00 | 40 | 1009.1 |
| 20260508014445 | 80 | 21 | 2.0 | 13.0 | 0.00 | 0.00 | 0.00 | 39 | 1009.0 |
| 20260508013941 | 80 | 27 | 10.0 | 14.0 | 0.00 | 0.00 | 0.00 | 39 | 1009.1 |
| 20260508013437 | 80 | 15 | 11.0 | 19.0 | 0.00 | 0.00 | 0.00 | 39 | 1009.5 |
| 20260508012935 | 80 | 341 | 16.0 | 22.0 | 0.00 | 0.00 | 0.00 | 38 | 1008.9 |
| 20260508012431 | 80 | 325 | 12.0 | 19.0 | 0.00 | 0.00 | 0.00 | 38 | 1008.7 |
| 20260508011929 | 81 | 5 | 9.0 | 17.0 | 0.00 | 0.00 | 0.00 | 37 | 1008.9 |
| 20260508011427 | 81 | 22 | 6.0 | 20.0 | 0.00 | 0.00 | 0.00 | 37 | 1008.8 |
| 20260508010924 | 81 | 347 | 8.0 | 21.0 | 0.00 | 0.00 | 0.00 | 37 | 1009.1 |
| 20260508010421 | 81 | 328 | 9.0 | 17.0 | 0.00 | 0.00 | 0.00 | 37 | 1009.1 |
| 20260508005918 | 81 | 356 | 15.0 | 21.0 | 0.00 | 0.00 | 0.00 | 37 | 1008.8 |
| 20260508005415 | 81 | 322 | 6.0 | 22.0 | 0.00 | 0.00 | 0.00 | 37 | 1008.8 |
| 20260508004911 | 82 | 341 | 9.0 | 12.0 | 0.00 | 0.00 | 0.00 | 37 | 1008.8 |
| 20260508004407 | 81 | 349 | 13.0 | 20.0 | 0.00 | 0.00 | 0.00 | 37 | 1009.0 |
| 20260508003904 | 82 | 4 | 11.0 | 14.0 | 0.00 | 0.00 | 0.00 | 37 | 1008.5 |
| 20260508003401 | 82 | 26 | 17.0 | 20.0 | 0.00 | 0.00 | 0.00 | 36 | 1008.7 |
| 20260508002858 | 82 | 356 | 7.0 | 18.0 | 0.00 | 0.00 | 0.00 | 36 | 1008.9 |
| 20260508002354 | 82 | 342 | 3.0 | 13.0 | 0.00 | 0.00 | 0.00 | 37 | 1008.9 |
| 20260508001851 | 82 | 327 | 10.0 | 15.0 | 0.00 | 0.00 | 0.00 | 36 | 1008.8 |
| 20260508001347 | 82 | 20 | 11.0 | 21.0 | 0.00 | 0.00 | 0.00 | 36 | 1008.7 |
| 20260508000843 | 82 | 17 | 6.0 | 19.0 | 0.00 | 0.00 | 0.00 | 36 | 1009.0 |
| 20260508000342 | 82 | 299 | 13.0 | 24.0 | 0.00 | 0.00 | 0.00 | 36 | 1008.8 |
| 20260507235837 | 82 | 35 | 7.0 | 20.0 | 0.00 | 0.00 | 0.00 | 36 | 1008.6 |
| 20260507235334 | 82 | 359 | 7.0 | 17.0 | 0.00 | 0.00 | 0.00 | 35 | 1009.1 |
| 20260507234831 | 83 | 18 | 7.0 | 15.0 | 0.00 | 0.00 | 0.00 | 34 | 1008.6 |
| 20260507234328 | 83 | 345 | 3.0 | 15.0 | 0.00 | 0.00 | 0.00 | 33 | 1008.9 |
| 20260507233824 | 84 | 12 | 10.0 | 11.0 | 0.00 | 0.00 | 0.00 | 33 | 1008.8 |
| 20260507233322 | 83 | 324 | 5.0 | 9.0 | 0.00 | 0.00 | 0.00 | 33 | 1008.9 |
| 20260507232820 | 83 | 338 | 6.0 | 14.0 | 0.00 | 0.00 | 0.00 | 33 | 1009.3 |
| 20260507232316 | 83 | 332 | 9.0 | 21.0 | 0.00 | 0.00 | 0.00 | 33 | 1009.2 |
| 20260507231813 | 84 | 16 | 7.0 | 14.0 | 0.00 | 0.00 | 0.00 | 35 | 1009.5 |
| 20260507231310 | 83 | 0 | 12.0 | 18.0 | 0.00 | 0.00 | 0.00 | 36 | 1009.4 |
| 20260507230806 | 83 | 346 | 10.0 | 16.0 | 0.00 | 0.00 | 0.00 | 36 | 1008.7 |
| 20260507230303 | 83 | 30 | 18.0 | 18.0 | 0.00 | 0.00 | 0.00 | 36 | 1008.3 |
| 20260507225803 | 84 | 23 | 11.0 | 22.0 | 0.00 | 0.00 | 0.00 | 35 | 1008.3 |
| 20260507225300 | 84 | 21 | 15.0 | 22.0 | 0.00 | 0.00 | 0.00 | 34 | 1008.2 |
| 20260507224756 | 84 | 10 | 11.0 | 20.0 | 0.00 | 0.00 | 0.00 | 32 | 1008.6 |
| 20260507224253 | 85 | 14 | 6.0 | 15.0 | 0.00 | 0.00 | 0.00 | 32 | 1008.8 |
| 20260507223749 | 85 | 345 | 5.0 | 15.0 | 0.00 | 0.00 | 0.00 | 32 | 1009.1 |
| 20260507223245 | 85 | 342 | 11.0 | 19.0 | 0.00 | 0.00 | 0.00 | 32 | 1009.1 |
| 20260507222743 | 85 | 23 | 7.0 | 15.0 | 0.00 | 0.00 | 0.00 | 32 | 1009.2 |
| 20260507222239 | 85 | 346 | 8.0 | 15.0 | 0.00 | 0.00 | 0.00 | 31 | 1009.4 |
| 20260507221736 | 85 | 343 | 9.0 | 18.0 | 0.00 | 0.00 | 0.00 | 32 | 1009.6 |
| 20260507221232 | 85 | 4 | 19.0 | 22.0 | 0.00 | 0.00 | 0.00 | 32 | 1009.1 |
| 20260507220729 | 85 | 0 | 7.0 | 20.0 | 0.00 | 0.00 | 0.00 | 33 | 1009.3 |
| 20260507220227 | 86 | 12 | 12.0 | 18.0 | 0.00 | 0.00 | 0.00 | 32 | 1009.5 |
| 20260507215723 | 86 | 0 | 8.0 | 19.0 | 0.00 | 0.00 | 0.00 | 33 | 1009.1 |
| 20260507215221 | 86 | 16 | 3.0 | 11.0 | 0.00 | 0.00 | 0.00 | 32 | 1008.9 |
| 20260507214718 | 86 | 4 | 6.0 | 19.0 | 0.00 | 0.00 | 0.00 | 32 | 1009.0 |
| 20260507214215 | 86 | 341 | 9.0 | 19.0 | 0.00 | 0.00 | 0.00 | 33 | 1009.1 |
| 20260507213710 | 86 | 336 | 13.0 | 20.0 | 0.00 | 0.00 | 0.00 | 33 | 1009.1 |
| 20260507213208 | 87 | 19 | 8.0 | 21.0 | 0.00 | 0.00 | 0.00 | 33 | 1009.0 |
| 20260507212703 | 87 | 7 | 8.0 | 16.0 | 0.00 | 0.00 | 0.00 | 33 | 1009.0 |
| 20260507212200 | 87 | 352 | 11.0 | 15.0 | 0.00 | 0.00 | 0.00 | 32 | 1009.4 |
| 20260507211657 | 87 | 354 | 6.0 | 11.0 | 0.00 | 0.00 | 0.00 | 31 | 1009.6 |
| 20260507211152 | 88 | 11 | 3.0 | 5.0 | 0.00 | 0.00 | 0.00 | 30 | 1009.2 |
| 20260507210650 | 88 | 355 | 5.0 | 9.0 | 0.00 | 0.00 | 0.00 | 31 | 1009.4 |
| 20260507210146 | 88 | 20 | 6.0 | 9.0 | 0.00 | 0.00 | 0.00 | 30 | 1009.6 |
| 20260507205643 | 88 | 359 | 6.0 | 10.0 | 0.00 | 0.00 | 0.00 | 30 | 1009.5 |
| 20260507205140 | 88 | 339 | 2.0 | 5.0 | 0.00 | 0.00 | 0.00 | 30 | 1009.2 |
| 20260507204636 | 88 | 23 | 5.0 | 8.0 | 0.00 | 0.00 | 0.00 | 31 | 1009.2 |
| 20260507204134 | 88 | 9 | 10.0 | 12.0 | 0.00 | 0.00 | 0.00 | 30 | 1009.3 |
| 20260507203632 | 88 | 17 | 8.0 | 8.0 | 0.00 | 0.00 | 0.00 | 30 | 1009.2 |
| 20260507203129 | 88 | 345 | 5.0 | 6.0 | 0.00 | 0.00 | 0.00 | 30 | 1009.2 |
| 20260507202625 | 88 | 22 | 7.0 | 8.0 | 0.00 | 0.00 | 0.00 | 30 | 1009.1 |
| 20260507202121 | 88 | 31 | 7.0 | 10.0 | 0.00 | 0.00 | 0.00 | 29 | 1009.1 |
| 20260507201616 | 89 | 21 | 10.0 | 14.0 | 0.00 | 0.00 | 0.00 | 29 | 1009.0 |
| 20260507201113 | 89 | 20 | 5.0 | 11.0 | 0.00 | 0.00 | 0.00 | 29 | 1009.0 |
| 20260507200608 | 89 | 346 | 10.0 | 11.0 | 0.00 | 0.00 | 0.00 | 29 | 1009.1 |
| 20260507200105 | 89 | 10 | 4.0 | 11.0 | 0.00 | 0.00 | 0.00 | 29 | 1009.0 |
| 20260507195603 | 89 | 26 | 3.0 | 10.0 | 0.00 | 0.00 | 0.00 | 29 | 1009.2 |
| 20260507195059 | 89 | 0 | 4.0 | 9.0 | 0.00 | 0.00 | 0.00 | 29 | 1009.3 |
| 20260507194556 | 89 | 1 | 8.0 | 10.0 | 0.00 | 0.00 | 0.00 | 29 | 1009.4 |
| 20260507194052 | 89 | 13 | 6.0 | 10.0 | 0.00 | 0.00 | 0.00 | 30 | 1009.5 |
| 20260507193549 | 89 | 17 | 9.0 | 11.0 | 0.00 | 0.00 | 0.00 | 30 | 1009.7 |
| 20260507193046 | 89 | 325 | 5.0 | 9.0 | 0.00 | 0.00 | 0.00 | 31 | 1009.9 |
| 20260507192542 | 89 | 21 | 2.0 | 5.0 | 0.00 | 0.00 | 0.00 | 33 | 1009.5 |
| 20260507192039 | 88 | 60 | 0.0 | 5.0 | 0.00 | 0.00 | 0.00 | 33 | 1009.7 |
| 20260507191534 | 89 | 343 | 8.0 | 9.0 | 0.00 | 0.00 | 0.00 | 33 | 1010.2 |
| 20260507191031 | 89 | 310 | 3.0 | 5.0 | 0.00 | 0.00 | 0.00 | 33 | 1009.7 |
| 20260507190529 | 89 | 312 | 4.0 | 8.0 | 0.00 | 0.00 | 0.00 | 34 | 1009.8 |
| 20260507190028 | 88 | 0 | 3.0 | 6.0 | 0.00 | 0.00 | 0.00 | 35 | 1009.6 |
| 20260507185526 | 89 | 350 | 6.0 | 7.0 | 0.00 | 0.00 | 0.00 | 34 | 1009.6 |
| 20260507185022 | 89 | 0 | 4.0 | 8.0 | 0.00 | 0.00 | 0.00 | 34 | 1009.4 |
| 20260507184520 | 89 | 330 | 5.0 | 6.0 | 0.00 | 0.00 | 0.00 | 34 | 1009.6 |
| 20260507184018 | 89 | 15 | 1.0 | 5.0 | 0.00 | 0.00 | 0.00 | 34 | 1009.6 |
| 20260507183513 | 89 | 4 | 6.0 | 6.0 | 0.00 | 0.00 | 0.00 | 35 | 1009.7 |
| 20260507183011 | 89 | 18 | 4.0 | 7.0 | 0.00 | 0.00 | 0.00 | 36 | 1009.8 |
| 20260507182507 | 89 | 289 | 5.0 | 9.0 | 0.00 | 0.00 | 0.00 | 36 | 1009.8 |
| 20260507182002 | 89 | 322 | 7.0 | 9.0 | 0.00 | 0.00 | 0.00 | 36 | 1009.6 |
| 20260507181500 | 89 | 303 | 3.0 | 5.0 | 0.00 | 0.00 | 0.00 | 36 | 1009.6 |